Погода в Брандоне

Канада     49°50′29″N   99°57′40″W
темп.,
°C
ветер,
м/с
пор.,
м/с
влажн.,
%
обл.,
%
осадки,
мм/ч
давл.,
гПа
погр.,
м
20 мая, пт
пт2001:00+4ссв91295100 6.4 994782
04:00+2ссв91691100 0.6 997882
07:00+1с81487100 1.4 1001814
10:00+2с81175100 0.3 1005968
13:00+3с81066100 0.3 10081534
16:00+4с7961100 0.1 10111625
19:00+4с6861100 0.3 10131449
22:00+2с368074 0.1 1017157
21 мая, сб
сб2101:000зсз368691 0.1 1018170
04:000зсз489864 0.0 1019262
07:000зсз369064 0.0 1022249
10:00+4ссз4576100 0.1 1023890
13:00+6ссз4565100 1.1 10221514
16:00+7с575499 0.2 10221458
19:00+8ссв3555100 0.2 10231296
22:00+4ююз11705 0.0 102410
22 мая, вс
вс2201:00+3зюз35795 0.0 102478
04:00+1з47895 0.0 1025120
07:00+2з36865 0.0 1025132
10:00+9з44615 0.0 1024527
13:00+13з444496 0.0 10232219
16:00+14зюз444188 0.0 10222221
19:00+14зюз44476 0.0 10211819
22:00+9ю335981 0.0 102236
23 мая, пн
пн2301:00+7ююз410715 0.0 1021149
04:00+6ююз411725 0.0 1021169
07:00+6юз412729 0.0 1020259
10:00+13юз710574 0.0 1018665
13:00+16юз78503 0.9 10161885
16:00+17ююз784887 0.3 10151995
19:00+16ююз58535 0.4 10131509
22:00+11ююз7157527 0.0 1014456
24 мая, вт
вт2401:00+10ююз715815 0.0 1015396
04:00+7юз38865 0.0 1016220
07:00+7ююз29885 0.0 1017325
10:00+14ююз456454 0.0 1016595
13:00+18ю44485 0.0 10151291
16:00+20ююв444517 0.0 10151880
19:00+18ююв55530 0.0 10151562
22:00+13ю48705 0.0 1016115